Regional Weather Roundup
Issued by NWS

Home | Current Version | Previous Version | Text Only | Print | Product List | Glossary On
Versions: 1 2 3 4 5 6 7 8 9 10 11 12 13 14 15 16 17 18 19 20 21 22 23 24 25 26 27 28 29 30 31 32 33 34 35 36 37 38 39 40 41 42 43 44 45 46 47 48 49 50
000
ASUS43 KFSD 020910
RWRSD

WEATHER ROUNDUP FOR SOUTH DAKOTA
NATIONAL WEATHER SERVICE SIOUX FALLS SD
400 AM CDT THU OCT 02 2014

NOTE: "FAIR" INDICATES FEW OR NO CLOUDS BELOW 12,000 FEET WITH NO
SIGNIFICANT WEATHER AND/OR OBSTRUCTIONS TO VISIBILITY.


SDZ001>005-009-010-012>017-021000-
NORTHWEST AND NORTH CENTRAL SOUTH DAKOTA

CITY           SKY/WX    TMP DP  RH WIND       PRES   REMARKS
BUFFALO          N/A     38  34  85 W7        29.89S
FAITH            N/A     44  39  82 W9        29.95R
MOBRIDGE       CLOUDY    49  45  86 NW6       29.89S
$$

SDZ012>016-024>037-041>051-057-063-072>074-021000-
SOUTHWEST AND SOUTH CENTRAL SOUTH DAKOTA

CITY           SKY/WX    TMP DP  RH WIND       PRES   REMARKS
RAPID CTY ARPT CLEAR     40  36  86 NW5       29.99S
PIERRE         CLOUDY    51  48  89 W6        29.92R
CUSTER         CLEAR     37  33  85 NW5       30.02F
ELLSWORTH AFB  CLEAR     42  37  83 W9        29.98S
PHILIP         CLEAR     46  43  89 W7        29.96F
PINE RIDGE     CLEAR     43  42  97 W3        30.00F
WINNER         LGT RAIN  52  50  93 W6        29.95S
$$

SDZ004>011-016>023-039-040-021000-
NORTHEAST SOUTH DAKOTA

CITY           SKY/WX    TMP DP  RH WIND       PRES   REMARKS
ABERDEEN       CLOUDY    47  45  93 SW3       29.88S
WATERTOWN      MOCLDY    50  48  93 NW7       29.87R
SISSETON         N/A     52  49  89 NW7       29.85R
$$

SDZ017-020-022-023-036>040-048>070-021000-
SOUTHEAST SOUTH DAKOTA

CITY           SKY/WX    TMP DP  RH WIND       PRES   REMARKS
SIOUX FALLS    MOCLDY    54  48  80 N9        29.84F
HURON          CLOUDY    49  47  93 W3        29.90S
CHAMBERLAIN    CLOUDY    51  49  93 CALM      29.92F
MITCHELL       CLOUDY    54  48  80 NW8       29.90S
YANKTON        CLOUDY    55  48  76 NW16G22   29.85S
$$

ABBREVIATIONS USED IN REMARKS
   TC - TEMPERATURE IN CELSIUS
  WCI - WIND CHILL INDEX
   HX - HEAT INDEX
  VSB - VISIBILITY



USA.gov is the U.S. government's official web portal to all federal, state and local government web resources and services.